Flag for U.S.A. Weather past 2 weeks in New Salem, North Dakota, U.S.A.

Now
9 °F

Clear.


Feels Like: -6 °F
Forecast: 6 / 31 °F
Wind: 12 mph from South

Location: Bismarck Municipal Airport

Current Time: Mar 2, 2015 at 7:31:46 AM

Latest Report: Mar 2, 2015 at 6:52 AM


Visibility: 10 mi

Pressure: 30.31 "Hg

Humidity: 88%

Dew point: 6 °F

Location of New SalemLocation

Historic Weather in New Salem — Graph

°F

New Salem temperature yesterday

Maximum temperature yesterday: 26 °F (at 2:52 PM)
Minimum temperature yesterday: 3 °F (at 12:52 AM)
Average temperature yesterday: 14 °F

Past Weeks' High & Low Weather Summary

 TemperatureHumidityPressure
High37 °F (Feb 23, 3:52 PM)92% (Feb 20, 5:52 AM)30.90 "Hg (Feb 20, 5:52 AM)
Low-14 °F (Feb 22, 6:52 AM)30% (Feb 23, 3:52 PM)29.71 "Hg (Feb 20, 3:02 AM)
Average12 °F69%30.30 "Hg
* Reported Feb 15 5:52 AM — Mar 2 5:52 AM, New Salem, Weather by CustomWeather, © 2015

Note: Actual official high and low records may vary slightly from our data, if they occured in-between our weather recording intervals... More about our weather records

Advertising

New Salem weather history for previous 24 hours

 ConditionsComfort  
Time TempWeatherWind HumidityBarometerVisibility
5:52 AM
Mon, Mar 2
6 °FClear.9 mph87%30.33 "Hg10 mi
4:52 AM6 °FClear.9 mph83%30.36 "Hg10 mi
3:52 AM4 °FClear.3 mph88%30.39 "Hg10 mi
2:52 AM3 °FClear.3 mph84%30.42 "Hg10 mi
1:52 AM3 °FClear.3 mph87%30.44 "Hg10 mi
12:52 AM4 °FClear.No wind88%30.45 "Hg10 mi
11:52 PM
Sun, Mar 1
4 °FClear.No wind80%30.47 "Hg10 mi
10:52 PM3 °FClear.No wind79%30.48 "Hg10 mi
9:52 PM12 °FClear.3 mph77%30.47 "Hg10 mi
8:52 PM6 °FClear.5 mph83%30.48 "Hg10 mi
7:52 PM18 °FClear.3 mph65%30.47 "Hg10 mi
6:52 PM20 °FClear.7 mph60%30.45 "Hg10 mi
5:52 PM23 °FSunny.13 mph53%30.44 "Hg10 mi
4:52 PM23 °FPartly sunny.12 mph57%30.43 "Hg10 mi
3:52 PM26 °FScattered clouds.15 mph44%30.41 "Hg10 mi
2:52 PM26 °FScattered clouds.16 mph48%30.40 "Hg10 mi
1:52 PM24 °FLight snow. Mostly cloudy.20 mph65%30.40 "Hg8 mi
12:52 PM24 °FOvercast.21 mph62%30.39 "Hg10 mi
11:52 AM24 °FOvercast.20 mph62%30.37 "Hg10 mi
10:52 AM23 °FOvercast.12 mph65%30.35 "Hg10 mi
9:52 AM19 °FLight snow. Overcast.15 mph74%30.34 "Hg5 mi
8:52 AM14 °FMostly cloudy.No wind77%30.32 "Hg10 mi
7:52 AM8 °FScattered clouds.No wind79%30.30 "Hg10 mi
Weather by CustomWeather, © 2015

See weather overviewHow to use our weather pages